This is the latest recevied weather packets stored in our database for station/object DO6GZ. If no packets are shown the sender has not sent any weather packets the latest 1 day(s).
| Time | Temp. | Humidity | Pressure | Rain* | Wind** | Luminosity | Snow |
|---|---|---|---|---|---|---|---|
| 1777994205 | 16.11° C | 10% | - | 0 mm | 0 m/s | - | - |
| 1777993577 | 15.56° C | 10% | - | 0 mm | 0 m/s | - | - |
| 1777991694 | 15.56° C | 10% | - | 0 mm | 2.24 m/s, 0° | - | - |
| 1777991067 | 15.56° C | 10% | - | 0 mm | 1.34 m/s, 90° | - | - |
| 1777990439 | 15.56° C | 10% | - | 0 mm | 2.68 m/s, 90° | - | - |
| 1777989812 | 15° C | 10% | - | 0 mm | 1.34 m/s, 135° | - | - |
| 1777989184 | 15° C | 10% | - | 0 mm | 0.89 m/s, 135° | - | - |
| 1777988557 | 15° C | 10% | - | 0.51 mm | 1.79 m/s, 135° | - | - |
| 1777987929 | 15° C | 10% | - | 0.51 mm | 4.47 m/s, 0° | - | - |
| 1777986047 | 15.56° C | 10% | - | 0 mm | 1.79 m/s, 225° | - | - |
| 1777985419 | 15° C | 10% | - | 0 mm | 3.13 m/s, 135° | - | - |
| 1777984164 | 15.56° C | 10% | - | 0 mm | 1.79 m/s, 90° | - | - |
| 1777983536 | 16.11° C | 10% | - | 0 mm | 0.89 m/s, 135° | - | - |
| 1777982909 | 17.22° C | 10% | - | 0 mm | 0.89 m/s, 135° | - | - |
| 1777982281 | 16.67° C | 10% | - | 0 mm | 1.34 m/s, 90° | - | - |
| 1777981654 | 17.22° C | 10% | - | 0 mm | 0.89 m/s, 135° | - | - |
| 1777981026 | 17.78° C | 10% | - | 0 mm | 1.79 m/s, 90° | - | - |
| 1777979771 | 17.78° C | 10% | - | 0 mm | 2.68 m/s, 135° | - | - |
| 1777979144 | 17.22° C | 10% | - | 0 mm | 0.45 m/s, 135° | - | - |
| 1777978516 | 18.33° C | 10% | - | 0 mm | 0.89 m/s, 90° | - | - |
| 1777977889 | 18.33° C | 10% | - | 0 mm | 0.89 m/s, 135° | - | - |
| 1777977261 | 18.89° C | 10% | - | 0 mm | 0.45 m/s, 225° | - | - |
| 1777976634 | 18.89° C | 10% | - | 0 mm | 0.89 m/s, 45° | - | - |
| 1777976006 | 17.78° C | 10% | - | 0 mm | 3.13 m/s, 315° | - | - |
| 1777975378 | 16.67° C | 10% | - | 0 mm | 1.34 m/s, 135° | - | - |
* Rain latest hour (hover to see other rain measurements)
** Current wind speed in m/s (hover to see current wind gust speed)